Retour au catalogue

STARLINK-2213

ActifCommunicationsVLEO
NORAD 47780·PAYLOAD·🇺🇸 United States

Lancé Mar 4, 2021 depuis Cape Canaveral Space Force Station

Loading…

Prochains Passages (prochaines 24 heures)

TLE

FraisSource: CelesTrak SupGP

Époque: Sep 15, 2026, 00:42 UTC

1 47780C 21017BL  26258.02965278 -.00030389  00000+0 -97695-3 0  2580
2 47780  53.1583  42.6858 0001224  82.3329 197.2510 15.31726813    15

Suivez STARLINK-2213 en temps réel avec AllMySat

Download on the App Store